Time,TemperatureF,DewpointF,PressureIn,WindDirection,WindDirectionDegrees,WindSpeedMPH,WindSpeedGustMPH,Humidity,HourlyPrecipIn,Conditions,Clouds,dailyrainin,SoftwareType,DateUTC
2013-02-23 00:00:00,30.6,24.0,29.01,WNW,292,1.0,6.0,78,0.00,,,0.00,Rainwise IP-100,2013-02-23 05:00:00,
2013-02-23 00:05:00,30.6,24.0,29.00,NW,315,2.0,4.0,78,0.00,,,0.00,Rainwise IP-100,2013-02-23 05:05:00,
2013-02-23 00:10:00,30.6,24.0,29.00,WSW,247,2.0,6.0,79,0.00,,,0.00,Rainwise IP-100,2013-02-23 05:10:00,
2013-02-23 00:15:00,30.6,26.0,29.00,WSW,247,4.0,6.0,80,0.00,,,0.00,Rainwise IP-100,2013-02-23 05:15:00,
2013-02-23 00:20:00,30.5,26.0,29.00,West,270,1.0,5.0,80,0.00,,,0.00,Rainwise IP-100,2013-02-23 05:20:00,
2013-02-23 00:25:00,30.5,24.0,28.99,West,270,4.0,6.0,79,0.00,,,0.00,Rainwise IP-100,2013-02-23 05:25:00,
2013-02-23 00:30:00,30.5,24.0,28.99,WNW,292,4.0,8.0,79,0.00,,,0.00,Rainwise IP-100,2013-02-23 05:30:00,
2013-02-23 00:35:00,30.5,26.0,28.99,WNW,292,3.0,6.0,80,0.00,,,0.00,Rainwise IP-100,2013-02-23 05:35:00,
2013-02-23 00:40:00,30.4,26.0,28.99,West,270,4.0,6.0,80,0.00,,,0.00,Rainwise IP-100,2013-02-23 05:40:00,
2013-02-23 00:45:00,30.4,26.0,28.99,West,270,4.0,7.0,81,0.00,,,0.00,Rainwise IP-100,2013-02-23 05:45:00,
2013-02-23 00:50:00,30.4,26.0,28.99,West,270,6.0,6.0,82,0.00,,,0.00,Rainwise IP-100,2013-02-23 05:50:00,
2013-02-23 00:55:00,30.3,26.0,28.99,West,270,4.0,10.0,82,0.00,,,0.00,Rainwise IP-100,2013-02-23 05:55:00,
2013-02-23 00:56:00,30.3,26.0,28.99,WNW,292,1.0,10.0,82,0.00,,,0.00,Rainwise IP-100,2013-02-23 05:56:00,
2013-02-23 01:01:00,30.3,26.0,28.99,West,270,3.0,6.0,82,0.00,,,0.00,Rainwise IP-100,2013-02-23 06:01:00,
2013-02-23 01:02:00,30.3,26.0,28.99,West,270,3.0,6.0,82,0.00,,,0.00,Rainwise IP-100,2013-02-23 06:02:00,
2013-02-23 01:07:00,30.2,26.0,28.99,WNW,292,2.0,5.0,83,0.00,,,0.00,Rainwise IP-100,2013-02-23 06:07:00,
2013-02-23 01:12:00,30.2,26.0,28.99,West,270,2.0,4.0,83,0.00,,,0.00,Rainwise IP-100,2013-02-23 06:12:00,
2013-02-23 01:18:00,30.2,26.0,28.99,West,270,2.0,6.0,83,0.00,,,0.00,Rainwise IP-100,2013-02-23 06:18:00,
2013-02-23 01:23:00,30.2,26.0,28.98,West,270,5.0,6.0,83,0.00,,,0.00,Rainwise IP-100,2013-02-23 06:23:00,
2013-02-23 01:28:00,30.2,26.0,28.98,West,270,1.0,7.0,83,0.00,,,0.00,Rainwise IP-100,2013-02-23 06:28:00,
2013-02-23 01:33:00,30.2,26.0,28.98,West,270,2.0,3.0,83,0.00,,,0.00,Rainwise IP-100,2013-02-23 06:33:00,
2013-02-23 01:38:00,30.1,26.0,28.98,West,270,0.0,6.0,82,0.00,,,0.00,Rainwise IP-100,2013-02-23 06:38:00,
2013-02-23 01:43:00,30.1,26.0,28.98,West,270,2.0,6.0,83,0.00,,,0.00,Rainwise IP-100,2013-02-23 06:43:00,
2013-02-23 01:48:00,30.1,26.0,28.98,West,270,2.0,3.0,84,0.00,,,0.00,Rainwise IP-100,2013-02-23 06:48:00,
2013-02-23 01:53:00,30.0,26.0,28.98,WNW,292,2.0,7.0,83,0.00,,,0.00,Rainwise IP-100,2013-02-23 06:53:00,
2013-02-23 01:58:00,30.0,26.0,28.98,WSW,247,0.0,6.0,83,0.00,,,0.00,Rainwise IP-100,2013-02-23 06:58:00,
2013-02-23 02:03:00,30.1,26.0,28.98,NW,315,2.0,6.0,83,0.00,,,0.00,Rainwise IP-100,2013-02-23 07:03:00,
2013-02-23 02:08:00,30.0,26.0,28.98,WNW,292,1.0,6.0,83,0.00,,,0.00,Rainwise IP-100,2013-02-23 07:08:00,
2013-02-23 02:13:00,30.0,26.0,28.98,West,270,0.0,6.0,83,0.00,,,0.00,Rainwise IP-100,2013-02-23 07:13:00,
2013-02-23 02:18:00,29.9,26.0,28.98,WNW,292,1.0,5.0,83,0.00,,,0.00,Rainwise IP-100,2013-02-23 07:18:00,
2013-02-23 02:23:00,29.9,26.0,28.97,West,270,0.0,7.0,83,0.00,,,0.00,Rainwise IP-100,2013-02-23 07:23:00,
2013-02-23 02:28:00,29.9,26.0,28.97,NE,45,0.0,6.0,83,0.00,,,0.00,Rainwise IP-100,2013-02-23 07:28:00,
2013-02-23 02:33:00,29.9,26.0,28.97,WNW,292,3.0,4.0,83,0.00,,,0.00,Rainwise IP-100,2013-02-23 07:33:00,
2013-02-23 02:38:00,29.9,26.0,28.97,West,270,5.0,6.0,83,0.00,,,0.00,Rainwise IP-100,2013-02-23 07:38:00,
2013-02-23 02:43:00,29.9,26.0,28.97,WNW,292,2.0,5.0,83,0.00,,,0.00,Rainwise IP-100,2013-02-23 07:43:00,
2013-02-23 02:48:00,29.9,26.0,28.97,NNW,337,1.0,6.0,83,0.00,,,0.00,Rainwise IP-100,2013-02-23 07:48:00,
2013-02-23 02:53:00,29.9,26.0,28.97,West,270,3.0,7.0,83,0.00,,,0.00,Rainwise IP-100,2013-02-23 07:53:00,
2013-02-23 02:58:00,29.9,26.0,28.96,WNW,292,2.0,4.0,84,0.00,,,0.00,Rainwise IP-100,2013-02-23 07:58:00,
2013-02-23 03:03:00,29.9,26.0,28.96,West,270,2.0,4.0,83,0.00,,,0.00,Rainwise IP-100,2013-02-23 08:03:00,
2013-02-23 03:08:00,29.8,26.0,28.96,WSW,247,4.0,6.0,83,0.00,,,0.00,Rainwise IP-100,2013-02-23 08:08:00,
2013-02-23 03:13:00,29.8,26.0,28.96,WNW,292,2.0,6.0,83,0.00,,,0.00,Rainwise IP-100,2013-02-23 08:13:00,
2013-02-23 03:18:00,29.8,26.0,28.96,WNW,292,0.0,4.0,84,0.00,,,0.00,Rainwise IP-100,2013-02-23 08:18:00,
2013-02-23 03:23:00,29.8,26.0,28.95,WNW,292,2.0,6.0,83,0.00,,,0.00,Rainwise IP-100,2013-02-23 08:23:00,
2013-02-23 03:28:00,29.8,26.0,28.95,WNW,292,2.0,5.0,84,0.00,,,0.00,Rainwise IP-100,2013-02-23 08:28:00,
2013-02-23 03:33:00,29.7,26.0,28.95,West,270,2.0,4.0,84,0.00,,,0.00,Rainwise IP-100,2013-02-23 08:33:00,
2013-02-23 03:38:00,29.7,26.0,28.95,West,270,0.0,4.0,83,0.00,,,0.00,Rainwise IP-100,2013-02-23 08:38:00,
2013-02-23 03:43:00,29.7,26.0,28.95,WNW,292,0.0,4.0,84,0.00,,,0.00,Rainwise IP-100,2013-02-23 08:43:00,
2013-02-23 03:48:00,29.7,26.0,28.95,WNW,292,0.0,3.0,84,0.00,,,0.00,Rainwise IP-100,2013-02-23 08:48:00,
2013-02-23 03:53:00,29.6,26.0,28.95,WNW,292,0.0,2.0,84,0.00,,,0.00,Rainwise IP-100,2013-02-23 08:53:00,
2013-02-23 03:58:00,29.5,26.0,28.95,WNW,292,0.0,0.0,84,0.00,,,0.00,Rainwise IP-100,2013-02-23 08:58:00,
2013-02-23 04:03:00,29.5,26.0,28.94,WNW,292,0.0,0.0,84,0.00,,,0.00,Rainwise IP-100,2013-02-23 09:03:00,
2013-02-23 04:08:00,29.4,26.0,28.94,WNW,292,0.0,2.0,85,0.00,,,0.00,Rainwise IP-100,2013-02-23 09:08:00,
2013-02-23 04:13:00,29.4,26.0,28.94,WNW,292,0.0,1.0,85,0.00,,,0.00,Rainwise IP-100,2013-02-23 09:13:00,
2013-02-23 04:18:00,29.3,26.0,28.94,WNW,292,0.0,0.0,85,0.00,,,0.00,Rainwise IP-100,2013-02-23 09:18:00,
2013-02-23 04:23:00,29.3,26.0,28.94,WNW,292,0.0,2.0,85,0.00,,,0.00,Rainwise IP-100,2013-02-23 09:23:00,
2013-02-23 04:28:00,29.2,26.0,28.94,WNW,292,0.0,1.0,85,0.00,,,0.00,Rainwise IP-100,2013-02-23 09:28:00,
2013-02-23 04:33:00,29.2,26.0,28.94,WNW,292,0.0,2.0,85,0.00,,,0.00,Rainwise IP-100,2013-02-23 09:33:00,
2013-02-23 04:38:00,29.2,26.0,28.94,WNW,292,1.0,1.0,86,0.00,,,0.00,Rainwise IP-100,2013-02-23 09:38:00,
2013-02-23 04:43:00,29.2,26.0,28.94,WNW,292,1.0,2.0,85,0.00,,,0.00,Rainwise IP-100,2013-02-23 09:43:00,
2013-02-23 04:48:00,29.1,26.0,28.93,WNW,292,0.0,2.0,87,0.00,,,0.00,Rainwise IP-100,2013-02-23 09:48:00,
2013-02-23 04:53:00,29.1,26.0,28.93,WNW,292,2.0,2.0,87,0.00,,,0.00,Rainwise IP-100,2013-02-23 09:53:00,
2013-02-23 04:58:00,29.1,26.0,28.93,WNW,292,1.0,3.0,87,0.00,,,0.00,Rainwise IP-100,2013-02-23 09:58:00,
2013-02-23 05:03:00,29.1,26.0,28.93,WNW,292,1.0,3.0,88,0.00,,,0.00,Rainwise IP-100,2013-02-23 10:03:00,
2013-02-23 05:08:00,29.1,26.0,28.93,WNW,292,0.0,2.0,87,0.00,,,0.00,Rainwise IP-100,2013-02-23 10:08:00,
2013-02-23 05:13:00,29.0,26.0,28.93,WNW,292,0.0,2.0,87,0.00,,,0.00,Rainwise IP-100,2013-02-23 10:13:00,
2013-02-23 05:18:00,28.9,26.0,28.93,WNW,292,0.0,1.0,88,0.00,,,0.00,Rainwise IP-100,2013-02-23 10:18:00,
2013-02-23 05:23:00,28.9,26.0,28.93,WNW,292,1.0,1.0,88,0.00,,,0.00,Rainwise IP-100,2013-02-23 10:23:00,
2013-02-23 05:28:00,28.9,26.0,28.93,WSW,247,1.0,4.0,87,0.00,,,0.00,Rainwise IP-100,2013-02-23 10:28:00,
2013-02-23 05:33:00,28.9,26.0,28.93,WSW,247,0.0,2.0,88,0.00,,,0.00,Rainwise IP-100,2013-02-23 10:33:00,
2013-02-23 05:38:00,28.9,26.0,28.93,WSW,247,0.0,2.0,87,0.00,,,0.00,Rainwise IP-100,2013-02-23 10:38:00,
2013-02-23 05:43:00,28.9,26.0,28.93,WSW,247,1.0,1.0,88,0.00,,,0.00,Rainwise IP-100,2013-02-23 10:43:00,
2013-02-23 05:48:00,28.9,26.0,28.93,West,270,0.0,2.0,87,0.00,,,0.00,Rainwise IP-100,2013-02-23 10:48:00,
2013-02-23 05:53:00,28.9,26.0,28.93,West,270,1.0,2.0,88,0.00,,,0.00,Rainwise IP-100,2013-02-23 10:53:00,
2013-02-23 05:58:00,28.9,26.0,28.93,West,270,2.0,5.0,85,0.00,,,0.00,Rainwise IP-100,2013-02-23 10:58:00,
2013-02-23 06:03:00,29.1,26.0,28.93,West,270,0.0,4.0,85,0.00,,,0.00,Rainwise IP-100,2013-02-23 11:03:00,
2013-02-23 06:08:00,29.1,26.0,28.93,West,270,0.0,2.0,86,0.00,,,0.00,Rainwise IP-100,2013-02-23 11:08:00,
2013-02-23 06:13:00,29.0,26.0,28.92,West,270,3.0,4.0,85,0.00,,,0.00,Rainwise IP-100,2013-02-23 11:13:00,
2013-02-23 06:18:00,29.1,26.0,28.92,West,270,1.0,5.0,85,0.00,,,0.00,Rainwise IP-100,2013-02-23 11:18:00,
2013-02-23 06:23:00,29.1,26.0,28.92,West,270,1.0,4.0,85,0.00,,,0.00,Rainwise IP-100,2013-02-23 11:23:00,
2013-02-23 06:28:00,29.1,26.0,28.91,West,270,1.0,4.0,85,0.00,,,0.00,Rainwise IP-100,2013-02-23 11:28:00,
2013-02-23 06:33:00,29.1,26.0,28.91,West,270,2.0,3.0,85,0.00,,,0.00,Rainwise IP-100,2013-02-23 11:33:00,
2013-02-23 06:38:00,29.1,26.0,28.91,West,270,1.0,3.0,85,0.00,,,0.00,Rainwise IP-100,2013-02-23 11:38:00,
2013-02-23 06:43:00,29.1,26.0,28.91,West,270,3.0,4.0,85,0.00,,,0.00,Rainwise IP-100,2013-02-23 11:43:00,
2013-02-23 06:48:00,29.1,26.0,28.91,West,270,1.0,5.0,85,0.00,,,0.00,Rainwise IP-100,2013-02-23 11:48:00,
2013-02-23 06:53:00,29.1,26.0,28.91,West,270,2.0,4.0,85,0.00,,,0.00,Rainwise IP-100,2013-02-23 11:53:00,
2013-02-23 06:58:00,29.1,26.0,28.91,West,270,2.0,4.0,85,0.00,,,0.00,Rainwise IP-100,2013-02-23 11:58:00,
2013-02-23 07:03:00,29.1,26.0,28.91,West,270,1.0,4.0,85,0.00,,,0.00,Rainwise IP-100,2013-02-23 12:03:00,
2013-02-23 07:08:00,29.2,26.0,28.91,West,270,2.0,4.0,85,0.00,,,0.00,Rainwise IP-100,2013-02-23 12:08:00,
2013-02-23 07:13:00,29.2,24.0,28.91,West,270,2.0,4.0,84,0.00,,,0.00,Rainwise IP-100,2013-02-23 12:13:00,
2013-02-23 07:18:00,29.3,26.0,28.91,West,270,2.0,3.0,85,0.00,,,0.00,Rainwise IP-100,2013-02-23 12:18:00,
2013-02-23 07:23:00,29.3,26.0,28.91,WNW,292,1.0,4.0,85,0.00,,,0.00,Rainwise IP-100,2013-02-23 12:23:00,
2013-02-23 07:28:00,29.4,24.0,28.91,WNW,292,1.0,3.0,84,0.00,,,0.00,Rainwise IP-100,2013-02-23 12:28:00,
2013-02-23 07:33:00,29.4,26.0,28.92,WNW,292,0.0,3.0,85,0.00,,,0.00,Rainwise IP-100,2013-02-23 12:33:00,
2013-02-23 07:38:00,29.5,26.0,28.92,WNW,292,0.0,3.0,83,0.00,,,0.00,Rainwise IP-100,2013-02-23 12:38:00,
2013-02-23 07:43:00,29.6,26.0,28.92,WNW,292,0.0,3.0,83,0.00,,,0.00,Rainwise IP-100,2013-02-23 12:43:00,
2013-02-23 07:48:00,29.7,26.0,28.91,West,270,3.0,4.0,83,0.00,,,0.00,Rainwise IP-100,2013-02-23 12:48:00,
2013-02-23 07:53:00,29.8,26.0,28.91,West,270,0.0,7.0,82,0.00,,,0.00,Rainwise IP-100,2013-02-23 12:53:00,
2013-02-23 07:58:00,29.9,26.0,28.91,West,270,2.0,4.0,83,0.00,,,0.00,Rainwise IP-100,2013-02-23 12:58:00,
2013-02-23 08:03:00,29.9,26.0,28.91,WSW,247,0.0,4.0,83,0.00,,,0.00,Rainwise IP-100,2013-02-23 13:03:00,
2013-02-23 08:08:00,29.9,26.0,28.91,WNW,292,2.0,4.0,83,0.00,,,0.00,Rainwise IP-100,2013-02-23 13:08:00,
2013-02-23 08:13:00,30.1,26.0,28.91,West,270,1.0,5.0,83,0.00,,,0.00,Rainwise IP-100,2013-02-23 13:13:00,
2013-02-23 08:18:00,30.2,26.0,28.91,West,270,1.0,4.0,83,0.00,,,0.00,Rainwise IP-100,2013-02-23 13:18:00,
2013-02-23 08:23:00,30.2,26.0,28.91,WNW,292,0.0,3.0,83,0.00,,,0.00,Rainwise IP-100,2013-02-23 13:23:00,
2013-02-23 08:28:00,30.3,26.0,28.91,WSW,247,1.0,4.0,83,0.00,,,0.00,Rainwise IP-100,2013-02-23 13:28:00,
2013-02-23 08:33:00,30.4,26.0,28.91,West,270,2.0,3.0,83,0.00,,,0.00,Rainwise IP-100,2013-02-23 13:33:00,
2013-02-23 08:38:00,30.6,26.0,28.91,West,270,0.0,5.0,83,0.00,,,0.00,Rainwise IP-100,2013-02-23 13:38:00,
2013-02-23 08:43:00,30.7,26.0,28.91,West,270,0.0,4.0,83,0.00,,,0.00,Rainwise IP-100,2013-02-23 13:43:00,
2013-02-23 08:48:00,30.8,26.0,28.91,West,270,1.0,4.0,83,0.00,,,0.00,Rainwise IP-100,2013-02-23 13:48:00,
2013-02-23 08:53:00,30.9,26.0,28.90,West,270,3.0,6.0,83,0.00,,,0.00,Rainwise IP-100,2013-02-23 13:53:00,
2013-02-23 08:58:00,30.9,26.0,28.91,WSW,247,3.0,5.0,83,0.00,,,0.00,Rainwise IP-100,2013-02-23 13:58:00,
2013-02-23 09:03:00,31.1,26.0,28.91,WSW,247,4.0,5.0,83,0.00,,,0.00,Rainwise IP-100,2013-02-23 14:03:00,
2013-02-23 09:08:00,31.1,26.0,28.91,West,270,3.0,6.0,82,0.00,,,0.00,Rainwise IP-100,2013-02-23 14:08:00,
2013-02-23 09:13:00,31.2,26.0,28.90,West,270,4.0,6.0,83,0.00,,,0.00,Rainwise IP-100,2013-02-23 14:13:00,
2013-02-23 09:18:00,31.3,26.0,28.90,WNW,292,0.0,6.0,82,0.00,,,0.00,Rainwise IP-100,2013-02-23 14:18:00,
2013-02-23 09:23:00,31.5,28.0,28.90,WNW,292,2.0,4.0,83,0.00,,,0.00,Rainwise IP-100,2013-02-23 14:23:00,
2013-02-23 09:28:00,31.5,28.0,28.90,WSW,247,3.0,5.0,82,0.00,,,0.00,Rainwise IP-100,2013-02-23 14:28:00,
2013-02-23 09:33:00,31.7,28.0,28.89,SSW,202,0.0,3.0,83,0.00,,,0.00,Rainwise IP-100,2013-02-23 14:33:00,
2013-02-23 09:38:00,31.8,28.0,28.89,WSW,247,3.0,5.0,82,0.00,,,0.00,Rainwise IP-100,2013-02-23 14:38:00,
2013-02-23 09:43:00,31.9,28.0,28.89,WNW,292,2.0,5.0,82,0.00,,,0.00,Rainwise IP-100,2013-02-23 14:43:00,
2013-02-23 09:48:00,31.9,28.0,28.89,West,270,6.0,6.0,82,0.00,,,0.00,Rainwise IP-100,2013-02-23 14:48:00,
2013-02-23 09:53:00,31.9,28.0,28.89,West,270,5.0,6.0,82,0.00,,,0.00,Rainwise IP-100,2013-02-23 14:53:00,
2013-02-23 09:58:00,31.9,28.0,28.89,WNW,292,3.0,6.0,83,0.00,,,0.00,Rainwise IP-100,2013-02-23 14:58:00,
2013-02-23 10:03:00,31.9,28.0,28.88,WSW,247,4.0,5.0,83,0.00,,,0.00,Rainwise IP-100,2013-02-23 15:03:00,
2013-02-23 10:08:00,32.1,28.0,28.88,NW,315,0.0,5.0,82,0.00,,,0.00,Rainwise IP-100,2013-02-23 15:08:00,
2013-02-23 10:13:00,32.2,28.0,28.88,SW,225,5.0,6.0,82,0.00,,,0.00,Rainwise IP-100,2013-02-23 15:13:00,
2013-02-23 10:18:00,32.3,28.0,28.88,West,270,1.0,5.0,82,0.00,,,0.00,Rainwise IP-100,2013-02-23 15:18:00,
2013-02-23 10:23:00,32.4,28.0,28.88,West,270,0.0,4.0,82,0.00,,,0.00,Rainwise IP-100,2013-02-23 15:23:00,
2013-02-23 10:28:00,32.5,28.0,28.88,NW,315,0.0,4.0,80,0.00,,,0.00,Rainwise IP-100,2013-02-23 15:28:00,
2013-02-23 10:33:00,32.5,28.0,28.88,NW,315,0.0,3.0,81,0.00,,,0.00,Rainwise IP-100,2013-02-23 15:33:00,
2013-02-23 10:38:00,32.7,28.0,28.88,NW,315,0.0,1.0,81,0.00,,,0.00,Rainwise IP-100,2013-02-23 15:38:00,
2013-02-23 10:43:00,32.8,28.0,28.88,NW,315,1.0,3.0,81,0.00,,,0.00,Rainwise IP-100,2013-02-23 15:43:00,
2013-02-23 10:48:00,32.9,28.0,28.88,NW,315,0.0,2.0,81,0.00,,,0.00,Rainwise IP-100,2013-02-23 15:48:00,
2013-02-23 10:53:00,32.9,28.0,28.88,West,270,4.0,4.0,81,0.00,,,0.00,Rainwise IP-100,2013-02-23 15:53:00,
2013-02-23 10:58:00,32.9,28.0,28.88,West,270,0.0,4.0,81,0.00,,,0.00,Rainwise IP-100,2013-02-23 15:58:00,
2013-02-23 11:03:00,32.9,28.0,28.87,West,270,2.0,3.0,81,0.00,,,0.00,Rainwise IP-100,2013-02-23 16:03:00,
2013-02-23 11:08:00,32.9,29.0,28.87,NW,315,0.0,3.0,82,0.00,,,0.00,Rainwise IP-100,2013-02-23 16:08:00,
2013-02-23 11:13:00,32.9,29.0,28.87,West,270,2.0,6.0,83,0.00,,,0.00,Rainwise IP-100,2013-02-23 16:13:00,
2013-02-23 11:18:00,32.8,29.0,28.86,West,270,2.0,4.0,83,0.00,,,0.00,Rainwise IP-100,2013-02-23 16:18:00,
2013-02-23 11:23:00,32.9,29.0,28.86,West,270,2.0,2.0,84,0.00,,,0.00,Rainwise IP-100,2013-02-23 16:23:00,
2013-02-23 11:28:00,32.9,29.0,28.86,WSW,247,5.0,5.0,85,0.00,,,0.00,Rainwise IP-100,2013-02-23 16:28:00,
2013-02-23 11:33:00,32.7,31.0,28.86,WSW,247,1.0,5.0,87,0.00,,,0.00,Rainwise IP-100,2013-02-23 16:33:00,
2013-02-23 11:38:00,32.8,31.0,28.86,WSW,247,0.0,6.0,87,0.00,,,0.00,Rainwise IP-100,2013-02-23 16:38:00,
2013-02-23 11:43:00,32.8,31.0,28.86,WSW,247,1.0,4.0,87,0.00,,,0.00,Rainwise IP-100,2013-02-23 16:43:00,
2013-02-23 11:48:00,32.8,31.0,28.85,WSW,247,3.0,4.0,87,0.00,,,0.00,Rainwise IP-100,2013-02-23 16:48:00,
2013-02-23 11:53:00,32.8,31.0,28.85,WSW,247,1.0,4.0,87,0.00,,,0.00,Rainwise IP-100,2013-02-23 16:53:00,
2013-02-23 11:58:00,32.8,31.0,28.85,West,270,4.0,6.0,89,0.00,,,0.00,Rainwise IP-100,2013-02-23 16:58:00,
2013-02-23 12:03:00,32.8,31.0,28.85,West,270,6.0,6.0,91,0.00,,,0.00,Rainwise IP-100,2013-02-23 17:03:00,
2013-02-23 12:08:00,32.6,31.0,28.84,West,270,3.0,6.0,92,0.00,,,0.00,Rainwise IP-100,2013-02-23 17:08:00,
2013-02-23 12:13:00,32.5,32.0,28.84,West,270,0.0,5.0,93,0.00,,,0.00,Rainwise IP-100,2013-02-23 17:13:00,
2013-02-23 12:18:00,32.5,32.0,28.84,West,270,1.0,6.0,94,0.00,,,0.00,Rainwise IP-100,2013-02-23 17:18:00,
2013-02-23 12:23:00,32.3,31.0,28.84,WSW,247,1.0,6.0,95,0.00,,,0.00,Rainwise IP-100,2013-02-23 17:23:00,
2013-02-23 12:28:00,32.4,31.0,28.83,WSW,247,2.0,5.0,96,0.00,,,0.00,Rainwise IP-100,2013-02-23 17:28:00,
2013-02-23 12:33:00,32.4,31.0,28.83,WSW,247,0.0,6.0,97,0.00,,,0.00,Rainwise IP-100,2013-02-23 17:33:00,
2013-02-23 12:38:00,32.5,32.0,28.83,West,270,1.0,4.0,97,0.00,,,0.00,Rainwise IP-100,2013-02-23 17:38:00,
2013-02-23 12:43:00,32.5,33.0,28.83,West,270,4.0,5.0,98,0.00,,,0.00,Rainwise IP-100,2013-02-23 17:43:00,
2013-02-23 12:48:00,32.5,33.0,28.83,WSW,247,2.0,6.0,98,0.00,,,0.00,Rainwise IP-100,2013-02-23 17:48:00,
2013-02-23 12:53:00,32.4,32.0,28.83,West,270,1.0,4.0,98,0.00,,,0.00,Rainwise IP-100,2013-02-23 17:53:00,
2013-02-23 12:58:00,32.4,32.0,28.83,WSW,247,3.0,5.0,99,0.00,,,0.00,Rainwise IP-100,2013-02-23 17:58:00,
2013-02-23 13:03:00,32.4,32.0,28.83,WSW,247,1.0,4.0,99,0.00,,,0.00,Rainwise IP-100,2013-02-23 18:03:00,
2013-02-23 13:08:00,32.4,32.0,28.82,WSW,247,1.0,3.0,99,0.00,,,0.00,Rainwise IP-100,2013-02-23 18:08:00,
2013-02-23 13:13:00,32.5,33.0,28.83,WSW,247,1.0,3.0,99,0.00,,,0.00,Rainwise IP-100,2013-02-23 18:13:00,
2013-02-23 13:18:00,32.5,33.0,28.83,WSW,247,1.0,4.0,99,0.00,,,0.00,Rainwise IP-100,2013-02-23 18:18:00,
2013-02-23 13:23:00,32.5,33.0,28.83,West,270,2.0,4.0,100,0.00,,,0.00,Rainwise IP-100,2013-02-23 18:23:00,
2013-02-23 13:28:00,32.4,32.0,28.83,West,270,1.0,4.0,100,0.00,,,0.00,Rainwise IP-100,2013-02-23 18:28:00,
2013-02-23 13:33:00,32.3,32.0,28.84,West,270,2.0,3.0,100,0.00,,,0.00,Rainwise IP-100,2013-02-23 18:33:00,
2013-02-23 13:38:00,32.3,32.0,28.83,West,270,3.0,5.0,100,0.00,,,0.00,Rainwise IP-100,2013-02-23 18:38:00,
2013-02-23 13:43:00,32.3,32.0,28.83,West,270,1.0,4.0,100,0.00,,,0.00,Rainwise IP-100,2013-02-23 18:43:00,
2013-02-23 13:48:00,32.3,32.0,28.82,West,270,2.0,6.0,100,0.00,,,0.00,Rainwise IP-100,2013-02-23 18:48:00,
2013-02-23 13:53:00,32.2,32.0,28.82,WNW,292,2.0,6.0,100,0.00,,,0.00,Rainwise IP-100,2013-02-23 18:53:00,
2013-02-23 13:58:00,32.1,32.0,28.82,West,270,1.0,7.0,100,0.00,,,0.00,Rainwise IP-100,2013-02-23 18:58:00,
2013-02-23 14:03:00,32.1,32.0,28.82,WNW,292,4.0,6.0,100,0.00,,,0.00,Rainwise IP-100,2013-02-23 19:03:00,
2013-02-23 14:08:00,32.2,32.0,28.82,West,270,5.0,5.0,100,0.00,,,0.00,Rainwise IP-100,2013-02-23 19:08:00,
2013-02-23 14:14:00,32.1,32.0,28.82,WSW,247,1.0,7.0,100,0.00,,,0.00,Rainwise IP-100,2013-02-23 19:14:00,
2013-02-23 14:19:00,32.1,32.0,28.82,West,270,2.0,7.0,100,0.00,,,0.00,Rainwise IP-100,2013-02-23 19:19:00,
2013-02-23 14:24:00,32.2,32.0,28.81,West,270,5.0,6.0,100,0.00,,,0.00,Rainwise IP-100,2013-02-23 19:24:00,
2013-02-23 14:29:00,32.1,32.0,28.81,WSW,247,6.0,6.0,100,0.00,,,0.00,Rainwise IP-100,2013-02-23 19:29:00,
2013-02-23 14:34:00,32.1,32.0,28.80,WSW,247,2.0,6.0,100,0.06,,,0.01,Rainwise IP-100,2013-02-23 19:34:00,
2013-02-23 14:39:00,32.1,32.0,28.80,West,270,5.0,6.0,100,0.06,,,0.01,Rainwise IP-100,2013-02-23 19:39:00,
2013-02-23 14:44:00,32.1,32.0,28.80,West,270,3.0,5.0,100,0.00,,,0.01,Rainwise IP-100,2013-02-23 19:44:00,
2013-02-23 14:49:00,32.1,32.0,28.80,West,270,1.0,5.0,100,0.00,,,0.01,Rainwise IP-100,2013-02-23 19:49:00,
2013-02-23 14:54:00,32.1,32.0,28.80,WSW,247,3.0,6.0,100,0.00,,,0.01,Rainwise IP-100,2013-02-23 19:54:00,
2013-02-23 14:59:00,32.1,32.0,28.80,West,270,3.0,6.0,100,0.00,,,0.01,Rainwise IP-100,2013-02-23 19:59:00,
2013-02-23 15:04:00,32.1,32.0,28.79,WSW,247,3.0,7.0,100,0.00,,,0.01,Rainwise IP-100,2013-02-23 20:04:00,
2013-02-23 15:09:00,32.2,32.0,28.79,NW,315,2.0,4.0,100,0.00,,,0.01,Rainwise IP-100,2013-02-23 20:09:00,
2013-02-23 15:14:00,32.3,32.0,28.79,West,270,3.0,5.0,100,0.06,,,0.02,Rainwise IP-100,2013-02-23 20:14:00,
2013-02-23 15:19:00,32.2,32.0,28.79,WSW,247,1.0,6.0,100,0.06,,,0.02,Rainwise IP-100,2013-02-23 20:19:00,
2013-02-23 15:24:00,32.2,32.0,28.79,West,270,1.0,5.0,100,0.00,,,0.02,Rainwise IP-100,2013-02-23 20:24:00,
2013-02-23 15:29:00,32.2,32.0,28.78,NNW,337,3.0,3.0,100,0.00,,,0.02,Rainwise IP-100,2013-02-23 20:29:00,
2013-02-23 15:34:00,32.2,32.0,28.78,West,270,5.0,5.0,100,0.00,,,0.02,Rainwise IP-100,2013-02-23 20:34:00,
2013-02-23 15:39:00,32.2,32.0,28.79,West,270,2.0,6.0,100,0.00,,,0.02,Rainwise IP-100,2013-02-23 20:39:00,
2013-02-23 15:44:00,32.2,32.0,28.78,West,270,1.0,3.0,100,0.00,,,0.02,Rainwise IP-100,2013-02-23 20:44:00,
2013-02-23 15:49:00,32.2,32.0,28.78,West,270,1.0,2.0,100,0.00,,,0.02,Rainwise IP-100,2013-02-23 20:49:00,
2013-02-23 15:54:00,32.2,32.0,28.78,WSW,247,1.0,5.0,100,0.00,,,0.02,Rainwise IP-100,2013-02-23 20:54:00,
2013-02-23 15:59:00,32.2,32.0,28.78,West,270,1.0,4.0,100,0.00,,,0.02,Rainwise IP-100,2013-02-23 20:59:00,
2013-02-23 16:04:00,32.2,32.0,28.79,WSW,247,4.0,5.0,100,0.00,,,0.02,Rainwise IP-100,2013-02-23 21:04:00,
2013-02-23 16:09:00,32.2,32.0,28.78,WSW,247,2.0,5.0,100,0.00,,,0.02,Rainwise IP-100,2013-02-23 21:09:00,
2013-02-23 16:14:00,32.1,32.0,28.78,West,270,5.0,6.0,100,0.00,,,0.02,Rainwise IP-100,2013-02-23 21:14:00,
2013-02-23 16:19:00,32.1,32.0,28.78,West,270,1.0,6.0,100,0.00,,,0.02,Rainwise IP-100,2013-02-23 21:19:00,
2013-02-23 16:24:00,32.1,32.0,28.78,WSW,247,1.0,6.0,100,0.00,,,0.02,Rainwise IP-100,2013-02-23 21:24:00,
2013-02-23 16:29:00,32.0,32.0,28.78,West,270,2.0,6.0,100,0.06,,,0.03,Rainwise IP-100,2013-02-23 21:29:00,
2013-02-23 16:34:00,32.0,32.0,28.78,WSW,247,1.0,6.0,100,0.06,,,0.03,Rainwise IP-100,2013-02-23 21:34:00,
2013-02-23 16:39:00,32.0,32.0,28.78,WSW,247,3.0,6.0,100,0.00,,,0.03,Rainwise IP-100,2013-02-23 21:39:00,
2013-02-23 16:44:00,31.9,32.0,28.77,WSW,247,3.0,6.0,100,0.00,,,0.03,Rainwise IP-100,2013-02-23 21:44:00,
2013-02-23 16:49:00,31.9,32.0,28.76,WSW,247,3.0,6.0,100,0.00,,,0.03,Rainwise IP-100,2013-02-23 21:49:00,
2013-02-23 16:54:00,31.9,32.0,28.77,SW,225,4.0,6.0,100,0.00,,,0.03,Rainwise IP-100,2013-02-23 21:54:00,
2013-02-23 16:59:00,31.9,32.0,28.77,West,270,3.0,7.0,100,0.00,,,0.03,Rainwise IP-100,2013-02-23 21:59:00,
2013-02-23 17:04:00,31.9,32.0,28.77,West,270,3.0,7.0,100,0.00,,,0.03,Rainwise IP-100,2013-02-23 22:04:00,
2013-02-23 17:09:00,31.9,32.0,28.77,WSW,247,2.0,7.0,100,0.00,,,0.03,Rainwise IP-100,2013-02-23 22:09:00,
2013-02-23 17:14:00,31.9,32.0,28.77,West,270,5.0,6.0,100,0.00,,,0.03,Rainwise IP-100,2013-02-23 22:14:00,
2013-02-23 17:19:00,31.9,32.0,28.76,West,270,1.0,7.0,100,0.00,,,0.03,Rainwise IP-100,2013-02-23 22:19:00,
2013-02-23 17:24:00,31.9,32.0,28.76,WSW,247,1.0,5.0,100,0.00,,,0.03,Rainwise IP-100,2013-02-23 22:24:00,
2013-02-23 17:29:00,31.9,32.0,28.76,West,270,3.0,5.0,100,0.00,,,0.03,Rainwise IP-100,2013-02-23 22:29:00,
2013-02-23 17:34:00,31.8,32.0,28.76,West,270,4.0,6.0,100,0.00,,,0.03,Rainwise IP-100,2013-02-23 22:34:00,
2013-02-23 17:39:00,31.8,32.0,28.76,West,270,1.0,4.0,100,0.00,,,0.03,Rainwise IP-100,2013-02-23 22:39:00,
2013-02-23 17:44:00,31.8,32.0,28.76,West,270,2.0,5.0,100,0.00,,,0.03,Rainwise IP-100,2013-02-23 22:44:00,
2013-02-23 17:49:00,31.8,32.0,28.76,WSW,247,1.0,4.0,100,0.00,,,0.03,Rainwise IP-100,2013-02-23 22:49:00,
2013-02-23 17:54:00,31.7,32.0,28.76,WSW,247,2.0,3.0,100,0.00,,,0.03,Rainwise IP-100,2013-02-23 22:54:00,
2013-02-23 17:59:00,31.7,32.0,28.76,West,270,3.0,4.0,100,0.00,,,0.03,Rainwise IP-100,2013-02-23 22:59:00,
2013-02-23 18:04:00,31.7,32.0,28.75,West,270,0.0,5.0,100,0.00,,,0.03,Rainwise IP-100,2013-02-23 23:04:00,
2013-02-23 18:09:00,31.7,32.0,28.75,West,270,1.0,4.0,100,0.00,,,0.03,Rainwise IP-100,2013-02-23 23:09:00,
2013-02-23 18:14:00,31.6,32.0,28.76,West,270,1.0,2.0,100,0.00,,,0.03,Rainwise IP-100,2013-02-23 23:14:00,
2013-02-23 18:19:00,31.6,32.0,28.75,West,270,0.0,3.0,100,0.00,,,0.03,Rainwise IP-100,2013-02-23 23:19:00,
2013-02-23 18:24:00,31.6,32.0,28.75,West,270,2.0,2.0,100,0.00,,,0.03,Rainwise IP-100,2013-02-23 23:24:00,
2013-02-23 18:29:00,31.6,32.0,28.75,West,270,0.0,3.0,100,0.00,,,0.03,Rainwise IP-100,2013-02-23 23:29:00,
2013-02-23 18:34:00,31.6,32.0,28.75,West,270,1.0,2.0,100,0.00,,,0.03,Rainwise IP-100,2013-02-23 23:34:00,
2013-02-23 18:39:00,31.6,32.0,28.75,West,270,0.0,2.0,100,0.00,,,0.03,Rainwise IP-100,2013-02-23 23:39:00,
2013-02-23 18:44:00,31.5,32.0,28.75,West,270,0.0,1.0,100,0.00,,,0.03,Rainwise IP-100,2013-02-23 23:44:00,
2013-02-23 18:49:00,31.5,32.0,28.75,West,270,1.0,2.0,100,0.00,,,0.03,Rainwise IP-100,2013-02-23 23:49:00,
2013-02-23 18:54:00,31.5,32.0,28.74,West,270,0.0,3.0,100,0.00,,,0.03,Rainwise IP-100,2013-02-23 23:54:00,
2013-02-23 18:59:00,31.5,32.0,28.74,West,270,0.0,3.0,100,0.00,,,0.03,Rainwise IP-100,2013-02-23 23:59:00,
2013-02-23 19:04:00,31.5,32.0,28.74,West,270,1.0,2.0,100,0.00,,,0.03,Rainwise IP-100,2013-02-24 00:04:00,
2013-02-23 19:09:00,31.5,32.0,28.74,West,270,1.0,2.0,100,0.00,,,0.03,Rainwise IP-100,2013-02-24 00:09:00,
2013-02-23 19:14:00,31.5,32.0,28.74,West,270,0.0,1.0,100,0.00,,,0.03,Rainwise IP-100,2013-02-24 00:14:00,
2013-02-23 19:19:00,31.5,32.0,28.74,West,270,0.0,0.0,100,0.00,,,0.03,Rainwise IP-100,2013-02-24 00:19:00,
2013-02-23 19:24:00,31.5,32.0,28.74,West,270,0.0,1.0,100,0.00,,,0.03,Rainwise IP-100,2013-02-24 00:24:00,
2013-02-23 19:29:00,31.5,32.0,28.74,West,270,0.0,2.0,100,0.00,,,0.03,Rainwise IP-100,2013-02-24 00:29:00,
2013-02-23 19:34:00,31.5,32.0,28.73,West,270,0.0,1.0,100,0.00,,,0.03,Rainwise IP-100,2013-02-24 00:34:00,
2013-02-23 19:39:00,31.4,31.0,28.73,West,270,0.0,0.0,100,0.00,,,0.03,Rainwise IP-100,2013-02-24 00:39:00,
2013-02-23 19:44:00,31.4,31.0,28.73,West,270,0.0,1.0,100,0.00,,,0.03,Rainwise IP-100,2013-02-24 00:44:00,
2013-02-23 19:49:00,31.4,31.0,28.73,West,270,1.0,2.0,100,0.00,,,0.03,Rainwise IP-100,2013-02-24 00:49:00,
2013-02-23 19:54:00,31.4,31.0,28.73,West,270,1.0,1.0,100,0.00,,,0.03,Rainwise IP-100,2013-02-24 00:54:00,
2013-02-23 19:59:00,31.5,32.0,28.73,West,270,0.0,2.0,100,0.00,,,0.03,Rainwise IP-100,2013-02-24 00:59:00,
2013-02-23 20:04:00,31.4,31.0,28.72,West,270,0.0,1.0,100,0.00,,,0.03,Rainwise IP-100,2013-02-24 01:04:00,
2013-02-23 20:09:00,31.4,31.0,28.72,West,270,1.0,1.0,100,0.00,,,0.03,Rainwise IP-100,2013-02-24 01:09:00,
2013-02-23 20:14:00,31.4,31.0,28.72,West,270,1.0,1.0,100,0.00,,,0.03,Rainwise IP-100,2013-02-24 01:14:00,
2013-02-23 20:19:00,31.4,31.0,28.72,West,270,0.0,1.0,100,0.00,,,0.03,Rainwise IP-100,2013-02-24 01:19:00,
2013-02-23 20:24:00,31.4,31.0,28.72,West,270,0.0,0.0,100,0.00,,,0.03,Rainwise IP-100,2013-02-24 01:24:00,
2013-02-23 20:29:00,31.4,31.0,28.72,West,270,0.0,0.0,100,0.00,,,0.03,Rainwise IP-100,2013-02-24 01:29:00,
2013-02-23 20:34:00,31.4,31.0,28.72,West,270,0.0,0.0,100,0.00,,,0.03,Rainwise IP-100,2013-02-24 01:34:00,
2013-02-23 20:39:00,31.4,31.0,28.72,West,270,0.0,0.0,100,0.00,,,0.03,Rainwise IP-100,2013-02-24 01:39:00,
2013-02-23 20:44:00,31.3,31.0,28.72,West,270,0.0,0.0,100,0.00,,,0.03,Rainwise IP-100,2013-02-24 01:44:00,
2013-02-23 20:49:00,31.4,31.0,28.72,West,270,0.0,0.0,100,0.00,,,0.03,Rainwise IP-100,2013-02-24 01:49:00,
2013-02-23 20:54:00,31.4,31.0,28.71,West,270,0.0,1.0,100,0.00,,,0.03,Rainwise IP-100,2013-02-24 01:54:00,
2013-02-23 20:59:00,31.4,31.0,28.72,West,270,0.0,0.0,100,0.00,,,0.03,Rainwise IP-100,2013-02-24 01:59:00,
2013-02-23 21:04:00,31.5,32.0,28.72,West,270,0.0,0.0,100,0.00,,,0.03,Rainwise IP-100,2013-02-24 02:04:00,
2013-02-23 21:09:00,31.5,32.0,28.71,West,270,0.0,0.0,100,0.00,,,0.03,Rainwise IP-100,2013-02-24 02:09:00,
2013-02-23 21:14:00,31.6,32.0,28.71,West,270,0.0,0.0,100,0.00,,,0.03,Rainwise IP-100,2013-02-24 02:14:00,
2013-02-23 21:19:00,31.6,32.0,28.71,West,270,0.0,0.0,100,0.00,,,0.03,Rainwise IP-100,2013-02-24 02:19:00,
2013-02-23 21:24:00,31.6,32.0,28.71,West,270,0.0,0.0,100,0.00,,,0.03,Rainwise IP-100,2013-02-24 02:24:00,
2013-02-23 21:29:00,31.6,32.0,28.71,West,270,0.0,0.0,100,0.00,,,0.03,Rainwise IP-100,2013-02-24 02:29:00,
2013-02-23 21:34:00,31.5,32.0,28.71,West,270,0.0,0.0,100,0.00,,,0.03,Rainwise IP-100,2013-02-24 02:34:00,
2013-02-23 21:39:00,31.5,32.0,28.71,West,270,0.0,0.0,100,0.00,,,0.03,Rainwise IP-100,2013-02-24 02:39:00,
2013-02-23 21:44:00,31.5,32.0,28.70,West,270,0.0,0.0,100,0.00,,,0.03,Rainwise IP-100,2013-02-24 02:44:00,
2013-02-23 21:49:00,31.5,32.0,28.70,West,270,0.0,0.0,100,0.00,,,0.03,Rainwise IP-100,2013-02-24 02:49:00,
2013-02-23 21:54:00,31.4,31.0,28.69,SSE,157,0.0,3.0,100,0.00,,,0.03,Rainwise IP-100,2013-02-24 02:54:00,
2013-02-23 21:59:00,31.4,31.0,28.69,SSE,157,0.0,0.0,100,0.00,,,0.03,Rainwise IP-100,2013-02-24 02:59:00,
2013-02-23 22:04:00,31.4,31.0,28.69,SSE,157,0.0,0.0,100,0.00,,,0.03,Rainwise IP-100,2013-02-24 03:04:00,
2013-02-23 22:09:00,31.3,31.0,28.69,SSE,157,0.0,0.0,100,0.00,,,0.03,Rainwise IP-100,2013-02-24 03:09:00,
2013-02-23 22:14:00,31.3,31.0,28.69,SSE,157,0.0,0.0,100,0.00,,,0.03,Rainwise IP-100,2013-02-24 03:14:00,
2013-02-23 22:19:00,31.3,31.0,28.68,SSE,157,0.0,0.0,100,0.00,,,0.03,Rainwise IP-100,2013-02-24 03:19:00,
2013-02-23 22:24:00,31.3,31.0,28.68,SSE,157,0.0,0.0,100,0.00,,,0.03,Rainwise IP-100,2013-02-24 03:24:00,
2013-02-23 22:29:00,31.2,31.0,28.68,SSE,157,0.0,0.0,100,0.00,,,0.03,Rainwise IP-100,2013-02-24 03:29:00,
2013-02-23 22:34:00,31.2,31.0,28.68,SSE,157,0.0,0.0,100,0.00,,,0.03,Rainwise IP-100,2013-02-24 03:34:00,
2013-02-23 22:39:00,31.2,31.0,28.67,SSE,157,0.0,0.0,100,0.00,,,0.03,Rainwise IP-100,2013-02-24 03:39:00,
2013-02-23 22:44:00,31.2,31.0,28.67,SSE,157,0.0,0.0,100,0.00,,,0.03,Rainwise IP-100,2013-02-24 03:44:00,
2013-02-23 22:49:00,31.1,31.0,28.67,SSE,157,0.0,0.0,100,0.00,,,0.03,Rainwise IP-100,2013-02-24 03:49:00,
2013-02-23 22:54:00,31.1,31.0,28.67,SSE,157,0.0,0.0,100,0.00,,,0.03,Rainwise IP-100,2013-02-24 03:54:00,
2013-02-23 22:59:00,31.1,31.0,28.67,SSE,157,0.0,0.0,100,0.00,,,0.03,Rainwise IP-100,2013-02-24 03:59:00,
2013-02-23 23:04:00,31.1,31.0,28.66,SSE,157,0.0,0.0,100,0.00,,,0.03,Rainwise IP-100,2013-02-24 04:04:00,
2013-02-23 23:09:00,31.1,31.0,28.66,SSE,157,0.0,0.0,100,0.00,,,0.03,Rainwise IP-100,2013-02-24 04:09:00,
2013-02-23 23:14:00,31.1,31.0,28.66,SSE,157,0.0,0.0,100,0.00,,,0.03,Rainwise IP-100,2013-02-24 04:14:00,
2013-02-23 23:19:00,31.1,31.0,28.66,SSE,157,0.0,0.0,100,0.00,,,0.03,Rainwise IP-100,2013-02-24 04:19:00,
2013-02-23 23:24:00,31.1,31.0,28.66,SSE,157,0.0,0.0,100,0.00,,,0.03,Rainwise IP-100,2013-02-24 04:24:00,
2013-02-23 23:29:00,31.1,31.0,28.66,SSE,157,0.0,0.0,100,0.00,,,0.03,Rainwise IP-100,2013-02-24 04:29:00,
2013-02-23 23:34:00,31.1,31.0,28.66,SSE,157,0.0,0.0,100,0.00,,,0.03,Rainwise IP-100,2013-02-24 04:34:00,
2013-02-23 23:39:00,31.1,31.0,28.65,SSE,157,0.0,0.0,100,0.00,,,0.03,Rainwise IP-100,2013-02-24 04:39:00,
2013-02-23 23:44:00,31.1,31.0,28.66,SSE,157,0.0,0.0,100,0.00,,,0.03,Rainwise IP-100,2013-02-24 04:44:00,
2013-02-23 23:49:00,31.1,31.0,28.65,SSE,157,0.0,0.0,100,0.00,,,0.03,Rainwise IP-100,2013-02-24 04:49:00,
2013-02-23 23:54:00,31.1,31.0,28.65,SSE,157,0.0,0.0,100,0.00,,,0.03,Rainwise IP-100,2013-02-24 04:54:00,
2013-02-23 23:59:00,31.1,31.0,28.65,SSE,157,0.0,0.0,100,0.00,,,0.03,Rainwise IP-100,2013-02-24 04:59:00,